Chihuahua, Mexico

1:03 AM MDT on August 21, 2017 (GMT -0600)
Gen Div P A Roberto Fierro

Weather History for MMCU - September, 2013

Change the Weather History Date:

Thursday, September 5, 2013

  Actual Average Record
Temperature  
Mean Temperature 74 °F -  
Max Temperature 85 °F 84 °F 95 °F (2015)
Min Temperature 63 °F 59 °F 55 °F (2010)
Cooling Degree Days 9    
Growing Degree Days 24 (Base 50)    
Moisture  
Dew Point 54 °F    
Average Humidity 50    
Maximum Humidity 94    
Minimum Humidity 16    
Precipitation  
Precipitation 0.00 in - - ()
Sea Level Pressure  
Sea Level Pressure 30.02 in    
Wind  
Wind Speed 5 mph ()    
Max Wind Speed 26 mph    
Max Gust Speed 41 mph    
Visibility 7.9 miles    
Events Rain    
Averages and records for this station are not official NWS values.
T = Trace of Precipitation, MM = Missing Value Source: Averaged Metar Reports

Daily Weather History Graph

Daily Weather History Graph

Search for Another Location

Airport or City:

Trip Planner

Search our weather history database for the weather conditions in past years. The results will help you decide how hot, cold, wet, or windy it might be!

Date:

Astronomy

Sep. 05, 2013 Rise Set
Actual Time 6:44 AM MDT 7:20 PM MDT
Civil Twilight 6:20 AM MDT 7:44 PM MDT
Nautical Twilight 5:52 AM MDT 8:12 PM MDT
Astronomical Twilight 5:23 AM MDT 8:40 PM MDT
Moon 6:53 AM MDT (9/5) 7:21 PM MDT (9/5)
Length of Visible Light 13h 24m
Length of Day
12h 36m
New Moon, 0% of the Moon is Illuminated
Sep 5
New Moon
Sep 12
First Quarter
Sep 19
Full
Sep 26
Last Quarter
Oct 4
New

Hourly Weather History & Observations

Time (MDT) Temp. Heat Index Dew Point Humidity Pressure Visibility Wind Dir Wind Speed Gust Speed Precip Events Conditions
2:40 AM 71 °F - 56 °F 50% 29.76 in 1 mi West 2.2 mph - -   Partly Cloudy
4:40 AM 64.4 °F - 51.8 °F 64% 30.19 in 10.0 mi Calm Calm - N/A   Scattered Clouds
5:40 AM 62.6 °F - 53.6 °F 72% 29.87 in 10.0 mi SSW 5.8 mph - N/A   Scattered Clouds
5:45 AM 65 °F - 57 °F 67% 29.80 in 1 mi Calm Calm - -   Scattered Clouds
6:40 AM 57.2 °F - 51.8 °F 82% 30.21 in 10.0 mi South 4.6 mph - N/A   Scattered Clouds
7:40 AM 64.4 °F - 53.6 °F 68% 30.24 in 10.0 mi South 5.8 mph - N/A   Scattered Clouds
8:49 AM 71.6 °F - 53.6 °F 53% 29.94 in 10.0 mi Calm Calm - N/A   Scattered Clouds
8:50 AM 75 °F - 56 °F 41% 29.88 in 6 mi Calm Calm - -   Scattered Clouds
9:40 AM 75.2 °F - 53.6 °F 47% 30.26 in 10.0 mi East 6.9 mph - N/A   Partly Cloudy
10:46 AM 78.8 °F - 51.8 °F 39% 30.26 in 10.0 mi East 12.7 mph - N/A   Partly Cloudy
11:40 AM 81 °F - 56 °F 32% 29.88 in 6 mi South 4.5 mph - -   Partly Cloudy
11:45 AM 80.6 °F - 51.8 °F 37% 29.91 in 10.0 mi NE 5.8 mph - N/A   Scattered Clouds
12:44 PM 80.6 °F - 51.8 °F 37% 30.23 in 10.0 mi East 10.4 mph - N/A   Scattered Clouds
1:43 PM 82.4 °F - 51.8 °F 35% 30.21 in 10.0 mi NNE 4.6 mph - N/A   Scattered Clouds
2:40 PM 84.2 °F - 33.8 °F 16% 29.90 in 10.0 mi ENE 11.5 mph - N/A   Mostly Cloudy
2:45 PM 84 °F - 54 °F 25% 29.94 in 6 mi ENE 6.7 mph - -   Partly Cloudy
3:40 PM 84.2 °F 82.8 °F 53.6 °F 35% 30.17 in 10.0 mi ESE 6.9 mph - N/A   Mostly Cloudy
4:40 PM 84.2 °F 82.8 °F 53.6 °F 35% 30.15 in 10.0 mi NE 3.5 mph - N/A   Mostly Cloudy
5:44 PM 84.2 °F - 51.8 °F 33% 29.85 in 10.0 mi ENE 5.8 mph - N/A   Scattered Clouds
5:45 PM 85 °F - 55 °F 25% 29.94 in 6 mi East 6.7 mph - -   Scattered Clouds
6:40 PM 82.4 °F - 51.8 °F 35% 30.13 in 10.0 mi NW 5.8 mph - N/A   Scattered Clouds
7:25 PM 78.8 °F - 51.8 °F 39% 30.16 in 7.0 mi East 26.5 mph - N/A   Mostly Cloudy
7:40 PM 71.6 °F - 51.8 °F 50% 30.17 in 6.0 mi ENE 23.0 mph 41.4 mph N/A Rain Rain
8:40 PM 72 °F - 60 °F 58% 29.67 in 1 mi ENE 6.7 mph - -   Partly Cloudy
8:40 PM 66.2 °F - 62.6 °F 88% 29.82 in 10.0 mi SE 6.9 mph - N/A   Mostly Cloudy
9:40 PM 68.0 °F - 66.2 °F 94% 30.19 in 10.0 mi Calm Calm - N/A   Mostly Cloudy
10:40 PM 68.0 °F - 64.4 °F 88% 30.19 in 10.0 mi WSW 4.6 mph - N/A   Mostly Cloudy
11:40 PM 72 °F - 59 °F 55% 29.75 in 1 mi West 2.2 mph - -   Partly Cloudy